Berwick, IA

10:39 PM CST on February 07, 2016 (GMT -0600)
Ankeny Regional

Weather History for KIKV - June, 2013

Change the Weather History Date:

Saturday, June 15, 2013

  Actual Average (KDSM) Record (KDSM)
Temperature  
Mean Temperature 72 °F 72 °F  
Max Temperature 82 °F 82 °F 96 °F (1913)
Min Temperature 62 °F 62 °F 47 °F (1917)
Degree Days  
Heating Degree Days 0 0  
Month to date heating degree days 14  
Since 1 June heating degree days 14  
Since 1 July heating degree days 6199  
Cooling Degree Days 7 7  
Month to date cooling degree days 83  
Year to date cooling degree days 159  
Since 1 June cooling degree days 83  
Growing Degree Days 22 (Base 50)    
Moisture  
Dew Point 66 °F    
Average Humidity 83    
Maximum Humidity 100    
Minimum Humidity 58    
Precipitation  
Precipitation 0.14 in 0.16 in 2.03 in (1954)
Month to date precipitation 2.46  
Year to date precipitation 15.64  
Snow  
Snow 0.00 in 0.00 in - ()
Month to date snowfall 0.0  
Since 1 June snowfall 0.0  
Since 1 July snowfall 35.3  
Snow Depth -    
Sea Level Pressure  
Sea Level Pressure 29.92 in    
Wind  
Wind Speed 8 mph (South)    
Max Wind Speed 20 mph    
Max Gust Speed 41 mph    
Visibility 9 miles    
Events Fog , Rain    
T = Trace of Precipitation, MM = Missing Value Source: NWS Daily Summary

Daily Weather History Graph

Daily Weather History Graph

Search for Another Location

Airport or City:

Trip Planner

Search our weather history database for the weather conditions in past years. The results will help you decide how hot, cold, wet, or windy it might be!

Date:

Astronomy

Jun. 15, 2013 Rise Set
Actual Time 5:39 AM CDT 8:50 PM CDT
Civil Twilight 5:05 AM CDT 9:24 PM CDT
Nautical Twilight 4:21 AM CDT 10:08 PM CDT
Astronomical Twilight 3:28 AM CDT 11:01 PM CDT
Moon 12:19 PM CDT (6/15) 12:21 AM CDT (6/15)
Length of Visible Light 16h 19m
Length of Day
15h 11m
Waxing Crescent, 40% of the Moon is Illuminated
Jun 15
Waxing Crescent
Jun 16
First Quarter
Jun 23
Full
Jun 29
Last Quarter
Jul 8
New

Hourly Weather History & Observations

Time (CDT) Temp. Heat Index Dew Point Humidity Pressure Visibility Wind Dir Wind Speed Gust Speed Precip Events Conditions
12:15 AM 66.2 °F - 62.6 °F 88% 29.99 in 5.0 mi West 9.2 mph 15.0 mph N/A Rain Light Rain
12:35 AM 66.2 °F - 62.6 °F 88% 30.01 in 9.0 mi SW 8.1 mph - N/A Rain Light Rain
12:55 AM 66.2 °F - 62.6 °F 88% 30.04 in 8.0 mi South 6.9 mph 13.8 mph 0.03 in   Light Drizzle
1:15 AM 64.4 °F - 62.6 °F 94% 30.00 in 5.0 mi SE 10.4 mph - N/A Rain Rain
1:35 AM 69.8 °F - 62.6 °F 78% 29.86 in 9.0 mi East 16.1 mph 28.8 mph N/A Rain Light Rain
1:55 AM 73.4 °F - 59.0 °F 61% 29.91 in 8.0 mi North 12.7 mph 41.4 mph 0.09 in Rain Light Rain
2:15 AM 71.6 °F - 60.8 °F 69% 29.93 in 10.0 mi WSW 8.1 mph 13.8 mph N/A Rain Light Rain
2:35 AM 68.0 °F - 62.6 °F 83% 29.90 in 10.0 mi South 8.1 mph - N/A   Light Drizzle
2:55 AM 66.2 °F - 62.6 °F 88% 29.88 in 10.0 mi SE 9.2 mph 18.4 mph 0.02 in   Partly Cloudy
3:15 AM 66.2 °F - 64.4 °F 94% 29.91 in 10.0 mi South 6.9 mph 12.7 mph N/A   Clear
3:35 AM 66.2 °F - 64.4 °F 94% 29.91 in 10.0 mi SSE 4.6 mph - N/A   Clear
3:55 AM 64.4 °F - 64.4 °F 100% 29.90 in 10.0 mi South 5.8 mph - N/A   Clear
4:15 AM 64.4 °F - 64.4 °F 100% 29.89 in 10.0 mi SSE 5.8 mph - N/A   Clear
4:35 AM 64.4 °F - 64.4 °F 100% 29.89 in 10.0 mi SSE 3.5 mph - N/A   Clear
4:55 AM 64.4 °F - 64.4 °F 100% 29.89 in 10.0 mi ESE 4.6 mph - N/A   Scattered Clouds
5:15 AM 64.4 °F - 64.4 °F 100% 29.89 in 10.0 mi Calm Calm - N/A   Scattered Clouds
5:35 AM 64.4 °F - 62.6 °F 94% 29.89 in 9.0 mi Calm Calm - N/A   Clear
5:55 AM 64.4 °F - 62.6 °F 94% 29.90 in 5.0 mi Calm Calm - N/A   Clear
6:15 AM 62.6 °F - 62.6 °F 100% 29.91 in 0.5 mi Calm Calm - N/A Fog Fog
6:35 AM 62.6 °F - 62.6 °F 100% 29.92 in 0.8 mi Calm Calm - N/A   Mostly Cloudy
6:55 AM 64.4 °F - 64.4 °F 100% 29.92 in 3.0 mi ESE 4.6 mph - N/A   Mostly Cloudy
7:15 AM 66.2 °F - 64.4 °F 94% 29.92 in 6.0 mi SE 5.8 mph - N/A   Mostly Cloudy
7:35 AM 66.2 °F - 64.4 °F 94% 29.92 in 9.0 mi SSE 6.9 mph - N/A   Scattered Clouds
7:55 AM 68.0 °F - 66.2 °F 94% 29.92 in 10.0 mi SSE 8.1 mph - N/A   Clear
8:15 AM 69.8 °F - 66.2 °F 88% 29.93 in 10.0 mi SSE 6.9 mph - N/A   Scattered Clouds
8:35 AM 69.8 °F - 66.2 °F 88% 29.92 in 10.0 mi SSE 8.1 mph - N/A   Mostly Cloudy
8:55 AM 71.6 °F - 66.2 °F 83% 29.91 in 10.0 mi SSE 16.1 mph - N/A   Partly Cloudy
9:15 AM 71.6 °F - 66.2 °F 83% 29.94 in 10.0 mi South 11.5 mph 17.3 mph N/A   Clear
9:35 AM 71.6 °F - 66.2 °F 83% 29.94 in 10.0 mi South 11.5 mph 19.6 mph N/A   Partly Cloudy
9:55 AM 69.8 °F - 66.2 °F 88% 29.93 in 10.0 mi SSE 11.5 mph 19.6 mph N/A   Partly Cloudy
10:15 AM 69.8 °F - 66.2 °F 88% 29.94 in 10.0 mi SSE 8.1 mph - N/A   Clear
10:35 AM 69.8 °F - 66.2 °F 88% 29.93 in 10.0 mi SE 4.6 mph - N/A   Clear
10:55 AM 69.8 °F - 66.2 °F 88% 29.93 in 10.0 mi Calm Calm - N/A   Partly Cloudy
11:15 AM 69.8 °F - 66.2 °F 88% 29.94 in 10.0 mi Calm Calm - N/A   Clear
11:35 AM 71.6 °F - 68.0 °F 88% 29.94 in 10.0 mi Calm Calm - N/A   Clear
11:55 AM 71.6 °F - 68.0 °F 88% 29.93 in 10.0 mi SE 4.6 mph - N/A   Clear
12:15 PM 73.4 °F - 68.0 °F 83% 29.95 in 10.0 mi South 4.6 mph - N/A   Clear
12:35 PM 75.2 °F - 69.8 °F 83% 29.94 in 10.0 mi Calm Calm - N/A   Clear
12:55 PM 75.2 °F - 68.0 °F 78% 29.93 in 10.0 mi SSE 3.5 mph - N/A   Clear
1:15 PM 77.0 °F - 69.8 °F 78% 29.94 in 10.0 mi Calm Calm - N/A   Clear
1:35 PM 78.8 °F - 68.0 °F 69% 29.94 in 10.0 mi West 4.6 mph - N/A   Clear
1:55 PM 77.0 °F - 66.2 °F 69% 29.93 in 10.0 mi Calm Calm - N/A   Clear
2:15 PM 77.0 °F - 68.0 °F 74% 29.92 in 10.0 mi NNE 4.6 mph - N/A   Clear
2:35 PM 77.0 °F - 68.0 °F 74% 29.92 in 10.0 mi SE 8.1 mph - N/A   Clear
2:55 PM 78.8 °F - 68.0 °F 69% 29.93 in 10.0 mi Calm Calm - N/A   Clear
3:15 PM 77.0 °F - 69.8 °F 78% 29.93 in 10.0 mi NNE 4.6 mph - N/A   Clear
3:35 PM 77.0 °F - 69.8 °F 78% 29.92 in 10.0 mi NNE 4.6 mph - N/A   Light Drizzle
3:55 PM 78.8 °F - 69.8 °F 74% 29.88 in 10.0 mi SE 6.9 mph - N/A   Clear
4:15 PM 78.8 °F - 71.6 °F 78% 29.85 in 10.0 mi SSE 9.2 mph - N/A   Clear
4:35 PM 78.8 °F - 69.8 °F 74% 29.85 in 10.0 mi South 11.5 mph - N/A   Clear
4:55 PM 78.8 °F - 69.8 °F 74% 29.88 in 10.0 mi SSW 12.7 mph - N/A   Clear
5:15 PM 78.8 °F - 69.8 °F 74% 29.88 in 10.0 mi SSW 15.0 mph - N/A   Clear
5:35 PM 78.8 °F - 71.6 °F 78% 29.87 in 10.0 mi SSW 15.0 mph 23.0 mph N/A   Clear
5:55 PM 82.4 °F 85.4 °F 68.0 °F 62% 29.87 in 10.0 mi Variable 6.9 mph 13.8 mph N/A   Clear
6:15 PM 80.6 °F 82.7 °F 66.2 °F 61% 29.85 in 10.0 mi West 10.4 mph - N/A   Clear
6:35 PM 82.4 °F 85.4 °F 68.0 °F 62% 29.86 in 10.0 mi WSW 8.1 mph - N/A   Clear
6:55 PM 82.4 °F 84.6 °F 66.2 °F 58% 29.86 in 10.0 mi West 11.5 mph - N/A   Clear
7:15 PM 80.6 °F 82.3 °F 64.4 °F 58% 29.87 in 10.0 mi WSW 8.1 mph - N/A   Clear
7:35 PM 78.8 °F - 64.4 °F 61% 29.88 in 10.0 mi WSW 6.9 mph - N/A   Clear
7:55 PM 77.0 °F - 66.2 °F 69% 29.89 in 10.0 mi SSW 6.9 mph - N/A   Clear
8:15 PM 77.0 °F - 66.2 °F 69% 29.91 in 10.0 mi South 9.2 mph - N/A   Clear
8:35 PM 75.2 °F - 66.2 °F 73% 29.93 in 10.0 mi South 19.6 mph 28.8 mph N/A   Mostly Cloudy
8:55 PM 71.6 °F - 64.4 °F 78% 29.93 in 10.0 mi South 15.0 mph 25.3 mph N/A   Scattered Clouds
9:15 PM 71.6 °F - 64.4 °F 78% 29.93 in 10.0 mi South 13.8 mph 20.7 mph N/A   Clear
9:35 PM 71.6 °F - 66.2 °F 83% 29.94 in 10.0 mi South 11.5 mph 17.3 mph N/A   Clear
9:55 PM 69.8 °F - 66.2 °F 88% 29.93 in 10.0 mi South 13.8 mph - N/A   Clear
10:15 PM 69.8 °F - 66.2 °F 88% 29.94 in 10.0 mi South 10.4 mph - N/A   Clear
10:35 PM 69.8 °F - 66.2 °F 88% 29.94 in 10.0 mi South 10.4 mph - N/A   Clear
10:55 PM 69.8 °F - 66.2 °F 88% 29.94 in 10.0 mi SSW 9.2 mph 15.0 mph N/A   Scattered Clouds
11:15 PM 68.0 °F - 66.2 °F 94% 29.94 in 10.0 mi South 9.2 mph - N/A   Partly Cloudy
11:35 PM 68.0 °F - 64.4 °F 88% 29.94 in 10.0 mi SSW 9.2 mph - N/A   Clear
11:55 PM 68.0 °F - 64.4 °F 88% 29.94 in 10.0 mi SSW 5.8 mph - N/A   Partly Cloudy